Perry, IA

10:25 AM CDT on April 24, 2017 (GMT -0500)
Perry Municipal

Weather History for KPRO - June, 2012

Change the Weather History Date:

Sunday, June 10, 2012

  Actual Average Record
Temperature  
Mean Temperature 84 °F -  
Max Temperature 95 °F 78 °F 95 °F (2012)
Min Temperature 73 °F 56 °F 45 °F (1989)
Cooling Degree Days 19    
Growing Degree Days 34 (Base 50)    
Moisture  
Dew Point 60 °F    
Average Humidity 47    
Maximum Humidity 82    
Minimum Humidity 25    
Precipitation  
Precipitation 0.04 in - - ()
Sea Level Pressure  
Sea Level Pressure 29.72 in    
Wind  
Wind Speed 15 mph (SSE)    
Max Wind Speed 29 mph    
Max Gust Speed 38 mph    
Visibility 10 miles    
Events Rain    
Averages and records for this station are not official NWS values.
T = Trace of Precipitation, MM = Missing Value Source: NWS Daily Summary

Daily Weather History Graph

Daily Weather History Graph

Search for Another Location

Airport or City:

Trip Planner

Search our weather history database for the weather conditions in past years. The results will help you decide how hot, cold, wet, or windy it might be!

Date:

Astronomy

Jun. 10, 2012 Rise Set
Actual Time 5:41 AM CDT 8:51 PM CDT
Civil Twilight 5:07 AM CDT 9:25 PM CDT
Nautical Twilight 4:23 AM CDT 10:09 PM CDT
Astronomical Twilight 3:31 AM CDT 11:01 PM CDT
Moon 12:39 AM CDT (6/10) 12:35 PM CDT (6/10)
Length of Visible Light 16h 18m
Length of Day
15h 10m
Waning Gibbous, 58% of the Moon is Illuminated
Jun 10
Waning Gibbous
Jun 11
Last Quarter
Jun 19
New
Jun 26
First Quarter
Jul 3
Full

Hourly Weather History & Observations

Time (CDT) Temp. Heat Index Dew Point Humidity Pressure Visibility Wind Dir Wind Speed Gust Speed Precip Events Conditions
12:15 AM 75.2 °F - 57.7 °F 54% 29.74 in 10.0 mi SSE 9.2 mph - N/A   Clear
12:55 AM 74.7 °F - 57.7 °F 55% 29.74 in 10.0 mi SSE 10.4 mph - N/A   Clear
1:15 AM 74.1 °F - 57.7 °F 56% 29.74 in 10.0 mi SSE 9.2 mph - N/A   Clear
1:35 AM 73.4 °F - 57.7 °F 58% 29.73 in 10.0 mi SSE 8.1 mph - N/A   Clear
1:55 AM 73.4 °F - 57.6 °F 58% 29.73 in 10.0 mi SSE 10.4 mph - N/A   Clear
2:15 AM 73.2 °F - 57.6 °F 58% 29.72 in 10.0 mi SSE 9.2 mph - N/A   Clear
3:15 AM 73.4 °F - 57.6 °F 58% 29.72 in 10.0 mi SSE 11.5 mph - N/A   Clear
3:35 AM 73.4 °F - 58.1 °F 59% 29.71 in 10.0 mi SSE 10.4 mph - N/A   Clear
3:55 AM 73.8 °F - 58.1 °F 58% 29.71 in 10.0 mi SSE 12.7 mph - N/A   Clear
4:15 AM 73.9 °F - 58.5 °F 58% 29.70 in 10.0 mi SSE 12.7 mph - N/A   Clear
4:35 AM 73.8 °F - 58.8 °F 59% 29.71 in 10.0 mi SSE 11.5 mph - N/A   Clear
4:55 AM 73.8 °F - 59.0 °F 60% 29.71 in 10.0 mi SSE 15.0 mph - N/A   Clear
5:15 AM 73.8 °F - 59.0 °F 60% 29.71 in 10.0 mi SSE 15.0 mph 19.6 mph N/A   Clear
5:35 AM 73.6 °F - 59.2 °F 61% 29.72 in 10.0 mi South 13.8 mph - N/A   Clear
5:55 AM 73.8 °F - 59.4 °F 61% 29.73 in 10.0 mi South 11.5 mph - N/A   Clear
6:15 AM 73.6 °F - 59.4 °F 61% 29.74 in 10.0 mi SSE 11.5 mph - N/A   Clear
6:35 AM 74.3 °F - 59.4 °F 60% 29.74 in 10.0 mi SSE 12.7 mph 18.4 mph N/A   Clear
7:15 AM 76.1 °F - 59.9 °F 57% 29.75 in 10.0 mi SSE 15.0 mph - N/A   Clear
7:35 AM 77.2 °F - 59.9 °F 55% 29.74 in 10.0 mi SSE 16.1 mph - N/A   Clear
7:55 AM 78.1 °F - 59.5 °F 53% 29.75 in 10.0 mi SSE 16.1 mph 25.3 mph N/A   Clear
8:15 AM 79.3 °F - 59.7 °F 51% 29.75 in 10.0 mi South 18.4 mph 25.3 mph N/A   Clear
8:35 AM 80.1 °F 80.9 °F 59.7 °F 50% 29.75 in 10.0 mi South 17.3 mph 21.9 mph N/A   Clear
8:55 AM 81.0 °F 81.6 °F 59.9 °F 49% 29.75 in 10.0 mi South 19.6 mph 24.2 mph N/A   Clear
9:15 AM 82.2 °F 82.6 °F 60.1 °F 47% 29.75 in 10.0 mi South 18.4 mph 24.2 mph N/A   Clear
9:35 AM 83.7 °F 83.9 °F 60.6 °F 46% 29.75 in 10.0 mi South 19.6 mph 25.3 mph N/A   Clear
9:55 AM 84.4 °F 84.6 °F 61.0 °F 45% 29.74 in 10.0 mi South 18.4 mph 25.3 mph N/A   Clear
10:15 AM 85.6 °F 85.9 °F 61.3 °F 44% 29.74 in 10.0 mi SSE 17.3 mph 24.2 mph N/A   Clear
10:35 AM 86.9 °F 87.2 °F 61.7 °F 43% 29.75 in 10.0 mi South 17.3 mph 25.3 mph N/A   Clear
10:55 AM 88.2 °F 88.4 °F 61.7 °F 41% 29.74 in 10.0 mi South 20.7 mph 27.6 mph N/A   Clear
11:15 AM 88.5 °F 88.6 °F 61.3 °F 40% 29.74 in 10.0 mi South 19.6 mph 25.3 mph N/A   Clear
11:35 AM 89.4 °F 89.2 °F 60.8 °F 38% 29.74 in 10.0 mi South 18.4 mph 28.8 mph N/A   Clear
11:55 AM 90.9 °F 90.6 °F 60.4 °F 36% 29.74 in 10.0 mi South 18.4 mph 27.6 mph N/A   Clear
12:15 PM 90.9 °F 90.6 °F 60.6 °F 36% 29.73 in 10.0 mi SSE 20.7 mph 28.8 mph N/A   Scattered Clouds
12:35 PM 91.8 °F 91.2 °F 59.4 °F 34% 29.73 in 10.0 mi SSE 15.0 mph 33.4 mph N/A   Scattered Clouds
12:55 PM 92.3 °F 90.7 °F 57.0 °F 30% 29.71 in 10.0 mi SSE 25.3 mph 32.2 mph N/A   Scattered Clouds
1:15 PM 93.0 °F 91.4 °F 56.3 °F 29% 29.71 in 10.0 mi South 23.0 mph 35.7 mph N/A   Scattered Clouds
1:35 PM 93.0 °F 91.1 °F 55.8 °F 28% 29.69 in 10.0 mi SSE 26.5 mph 33.4 mph N/A   Scattered Clouds
1:55 PM 94.1 °F 92.2 °F 55.0 °F 27% 29.69 in 10.0 mi SSE 25.3 mph 33.4 mph N/A   Clear
2:15 PM 94.1 °F 91.6 °F 53.6 °F 25% 29.69 in 10.0 mi South 21.9 mph 33.4 mph N/A   Clear
2:35 PM 94.3 °F 92.1 °F 54.0 °F 26% 29.69 in 10.0 mi South 26.5 mph 38.0 mph N/A   Scattered Clouds
2:55 PM 94.1 °F 91.9 °F 54.5 °F 26% 29.69 in 10.0 mi SSE 23.0 mph 31.1 mph N/A   Scattered Clouds
3:15 PM 95.2 °F 93.3 °F 55.2 °F 26% 29.69 in 10.0 mi South 28.8 mph 34.5 mph N/A   Scattered Clouds
3:35 PM 95.4 °F 93.5 °F 55.2 °F 26% 29.69 in 10.0 mi South 26.5 mph 31.1 mph N/A   Scattered Clouds
3:55 PM 94.5 °F 92.6 °F 55.4 °F 27% 29.69 in 10.0 mi South 26.5 mph 31.1 mph N/A   Mostly Cloudy
4:15 PM 93.4 °F 91.5 °F 55.9 °F 28% 29.70 in 10.0 mi SSE 21.9 mph 28.8 mph N/A   Mostly Cloudy
4:35 PM 93.0 °F 91.4 °F 55.9 °F 29% 29.70 in 10.0 mi South 23.0 mph 27.6 mph N/A   Scattered Clouds
4:55 PM 91.4 °F 89.9 °F 57.2 °F 31% 29.70 in 10.0 mi SSE 21.9 mph 27.6 mph N/A   Mostly Cloudy
5:15 PM 91.4 °F 90.1 °F 57.4 °F 32% 29.69 in 10.0 mi SSE 23.0 mph 28.8 mph N/A   Mostly Cloudy
5:35 PM 90.9 °F 89.7 °F 57.9 °F 33% 29.69 in 10.0 mi SSE 21.9 mph 26.5 mph N/A   Scattered Clouds
5:55 PM 90.3 °F 89.3 °F 58.3 °F 34% 29.70 in 10.0 mi South 20.7 mph 26.5 mph N/A   Mostly Cloudy
6:15 PM 89.6 °F 88.6 °F 58.5 °F 35% 29.68 in 10.0 mi SSE 24.2 mph 29.9 mph N/A   Mostly Cloudy
6:35 PM 88.9 °F 88.3 °F 59.4 °F 37% 29.69 in 10.0 mi SSE 18.4 mph 23.0 mph N/A   Scattered Clouds
6:55 PM 88.7 °F 88.0 °F 59.4 °F 37% 29.69 in 10.0 mi SSE 15.0 mph 23.0 mph N/A   Scattered Clouds
7:15 PM 87.8 °F 87.1 °F 59.5 °F 38% 29.69 in 10.0 mi SSE 18.4 mph 25.3 mph N/A   Scattered Clouds
7:35 PM 87.3 °F 87.0 °F 59.9 °F 40% 29.70 in 10.0 mi South 15.0 mph 21.9 mph N/A   Scattered Clouds
7:55 PM 86.5 °F 86.3 °F 60.3 °F 41% 29.70 in 10.0 mi SSE 13.8 mph 17.3 mph N/A   Mostly Cloudy
8:15 PM 86.0 °F 85.9 °F 60.4 °F 42% 29.70 in 10.0 mi SSE 11.5 mph - N/A   Overcast
8:35 PM 85.3 °F 85.4 °F 60.8 °F 44% 29.69 in 10.0 mi SSE 12.7 mph 17.3 mph N/A   Mostly Cloudy
8:55 PM 84.7 °F 85.0 °F 61.2 °F 45% 29.72 in 10.0 mi SSE 10.4 mph - N/A   Scattered Clouds
9:15 PM 84.2 °F 84.6 °F 61.3 °F 46% 29.72 in 10.0 mi South 11.5 mph - N/A   Scattered Clouds
9:35 PM 82.6 °F 84.1 °F 64.4 °F 54% 29.71 in 10.0 mi South 26.5 mph 33.4 mph N/A Rain Rain
9:55 PM 79.2 °F - 66.6 °F 65% 29.70 in 10.0 mi South 15.0 mph - N/A Rain Light Rain
10:15 PM 79.2 °F - 66.9 °F 66% 29.72 in 10.0 mi South 9.2 mph - N/A   Scattered Clouds
10:35 PM 78.6 °F - 67.1 °F 68% 29.72 in 10.0 mi South 8.1 mph - 0.01 in   Light Drizzle
10:55 PM 77.9 °F - 67.3 °F 70% 29.73 in 10.0 mi South 8.1 mph - 0.02 in Rain Light Rain
11:15 PM 76.5 °F - 67.8 °F 75% 29.80 in 10.0 mi WSW 21.9 mph 28.8 mph N/A Rain Light Rain
11:35 PM 73.6 °F - 67.8 °F 82% 29.81 in 7.0 mi WNW 9.2 mph - 0.01 in Rain Rain
11:55 PM 73.6 °F - 66.6 °F 79% 29.77 in 7.0 mi SSE 8.1 mph - 0.02 in Rain Heavy Rain